This demonstration page uses our WeatherBlox Daily Observations layout. Learn more.

Left ArrowRight Arrow

Hourly Observations for February 23, 2016

Temp ( °F °C ) Dew Point ( °F °C ) Humidity (%) Winds ( mph kmh ) Pressure ( in mb ) Visibility ( mi km ) Precip ( " mm )
12:59 am 00:59 Cloudy with Light Rain 45 7.2 42 5.6 90 90 NE 12 19 30.12 1020 6 10 0.03 0.76
1:59 am 01:59 Cloudy with Light Rain 45 7.2 42 5.6 90 90 NE 7 11 30.11 1020 6 10 0.01 0.25
2:16 am 02:16 Cloudy with Light Rain 45 7.2 42 5.6 90 90 NE 8 13 30.12 1020 5 8 0.02 0.51
2:59 am 02:59 Cloudy with Light Rain 46 7.8 43 6.1 89 89 ENE 9 15 30.08 1019 5 8 0.06 1.52
3:27 am 03:27 Cloudy with Light Rain 46 7.8 43 6.1 89 89 NE 7 11 30.09 1019 6 10 0.00 0.03
3:59 am 03:59 Cloudy with Light Rain 46 7.8 43 6.1 89 89 ENE 12 19 30.06 1018 6 10 0.00 0.03
4:59 am 04:59 Cloudy 47 8.3 44 6.7 90 90 ENE 14 22 30.04 1017 8 13 0.02 0.51
5:59 am 05:59 Cloudy 48 8.9 45 7.2 89 89 ENE 7 11 30.05 1018 8 13 0.01 0.25
6:59 am 06:59 Cloudy 47 8.3 45 7.2 93 93 N 9 15 30.08 1019 7 11 0.00 0.00
7:20 am 07:20 Cloudy with Mist and Fog 46 7.8 44 6.7 93 93 N 8 13 30.09 1019 6 10 0.00 0.00
7:59 am 07:59 Cloudy 46 7.8 44 6.7 93 93 NNE 12 19 30.07 1018 7 11 0.00 0.00
8:59 am 08:59 Cloudy with Mist and Fog 45 7.2 43 6.1 93 93 NNE 8 13 30.09 1019 5 8 0.00 0.00
9:01 am 09:01 Cloudy with Mist and Fog 45 7.2 43 6.1 93 93 NNE 12 19 30.09 1019 3 5 0.00 0.00
9:42 am 09:42 Cloudy with Mist and Fog 46 7.8 43 6.1 89 89 NNE 10 17 30.09 1019 1 1 0.00 0.00
9:56 am 09:56 Cloudy with Fog 45 7 43 6 93 93 NNE 10 17 30.06 1018 1 1 0.00 0.00
9:59 am 09:59 Cloudy with Fog 45 7.2 43 6.1 93 93 N 10 17 30.07 1018 1 1 0.00 0.00
10:04 am 10:04 Cloudy with Fog 45 7.2 43 6.1 93 93 N 10 17 30.09 1019 0 0 0.00 0.00
10:42 am 10:42 Cloudy with Fog 46 7.8 44 6.7 93 93 N 13 20 30.06 1018 0 0 0.00 0.00
10:59 am 10:59 Cloudy with Fog 46 7.8 44 6.7 93 93 N 13 20 30.07 1018 0 0 0.00 0.00
11:21 am 11:21 Mostly Cloudy with Fog 46 7.8 44 6.7 93 93 N 12 19 30.09 1019 1 2 0.00 0.00
11:59 am 11:59 Cloudy with Fog 47 8.3 45 7.2 93 93 N 10 17 30.06 1018 1 2 0.00 0.00
12:59 pm 12:59 Mostly Cloudy with Fog 48 8.9 46 7.8 93 93 N 13 20 30.02 1017 1 2 0.00 0.00
1:29 pm 13:29 Mostly Cloudy with Fog 47 8.3 46 7.8 97 97 N 9 15 30.03 1017 1 2 0.00 0.00
1:43 pm 13:43 Mostly Cloudy with Fog 46 7.8 44 6.7 93 93 NNE 9 15 30.03 1017 1 2 0.00 0.00
1:59 pm 13:59 Mostly Cloudy with Fog 47 8.3 45 7.2 93 93 NE 7 11 30.02 1017 1 2 0.00 0.00
2:16 pm 14:16 Cloudy with Fog 47 8.3 45 7.2 93 93 NE 3 6 30.03 1017 1 1 0.00 0.00
2:35 pm 14:35 Cloudy with Fog 46 7.8 44 6.7 93 93 N 5 7 30.03 1017 1 2 0.00 0.03
2:59 pm 14:59 Cloudy with Light Rain 47 8.3 44 6.7 90 90 N 5 7 30.03 1017 1 2 0.00 0.03
3:46 pm 15:46 Mostly Cloudy with Fog 48 8.9 46 7.8 93 93 NNE 5 7 30.00 1016 1 2 0.01 0.25
3:59 pm 15:59 Mostly Cloudy with Fog 47 8.3 46 7.8 97 97 Calm 30.02 1017 1 2 0.01 0.25
4:59 pm 16:59 Cloudy with Fog 49 9.4 47 8.3 93 93 NW 6 9 30.04 1017 1 2 0.01 0.25
5:59 pm 17:59 Mostly Cloudy with Fog 49 9.4 47 8.3 93 93 NE 3 6 30.05 1018 1 2 0.00 0.00
6:37 pm 18:37 Mostly Cloudy with Light Rain 49 9.4 47 8.3 93 93 N 6 9 30.06 1018 0 0 0.00 0.03
6:59 pm 18:59 Mostly Cloudy with Fog 48 8.9 46 7.8 93 93 N 8 13 30.04 1017 0 0 0.00 0.03
7:19 pm 19:19 Cloudy with Mist and Fog 48 8.9 46 7.8 93 93 N 6 9 30.03 1017 2 3 0.00 0.00
7:40 pm 19:40 Cloudy with Mist and Fog 47 8.3 45 7.2 93 93 N 7 11 30.03 1017 4 6 0.00 0.00
7:59 pm 19:59 Cloudy with Mist and Fog 47 8.3 45 7.2 93 93 N 5 7 30.04 1017 5 8 0.00 0.00
8:59 pm 20:59 Cloudy with Mist and Fog 47 8.3 45 7.2 93 93 N 6 9 30.04 1017 2 3 0.00 0.00
9:22 pm 21:22 Cloudy with Mist and Fog 46 7.8 44 6.7 93 93 NNE 7 11 30.03 1017 1 1 0.00 0.00
9:45 pm 21:45 Mostly Cloudy with Fog 46 7.8 45 7.2 96 96 NE 6 9 30.03 1017 1 1 0.00 0.00
9:59 pm 21:59 Mostly Cloudy with Mist and Fog 46 7.8 45 7.2 96 96 NE 5 7 30.03 1017 1 1 0.00 0.00
10:48 pm 22:48 Mostly Cloudy with Fog 46 7.8 44 6.7 93 93 NNE 3 6 30.03 1017 1 1 0.00 0.00
10:59 pm 22:59 Mostly Cloudy with Fog 46 7.8 44 6.7 93 93 NNE 3 6 30.04 1017 1 1 0.00 0.00
11:18 pm 23:18 Mostly Cloudy with Fog 46 7.8 44 6.7 93 93 NNE 7 11 30.03 1017 1 1 0.00 0.00
11:59 pm 23:59 Mostly Cloudy with Fog 45 7.2 43 6.1 93 93 NE 5 7 30.01 1016 0 0 0.00 0.00

Powered by AerisWeather